Location: Neuvy Saint Sepulchre
(46.5953°N, 1.8122°E)
Time: 16:38:20
(UTC+02:00)

ISS - Pass Details

Date: 30 March 2019
Orbit: 408 x 410 km, 51.6° (Epoch: 25 April)

Event Time Altitude Azimuth Distance (km) Brightness Sun altitude
Rises 22:25:22 0° 296° (WNW) 2,338 1.1 -29.4°
Reaches altitude 10° 22:27:27 10° 297° (WNW) 1,474 -0.2 -29.6°
Enters shadow 22:27:57 14° 298° (WNW) 1,271 -0.6 -29.7°
